Zurück zum Katalog

CZ-6A DEB

AktivPO
NORAD 60975·DEBRIS·🇨🇳 China

Gestartet Aug 6, 2024 von Taiyuan Satellite Launch Center

Loading…

Nächste Überflüge (nächste 24 Stunden)

TLE

AktuellSource: Space-Track

Epoche: Sep 14, 2026, 11:07 UTC

1 60975U 24140MA  26257.46382650  .00000970  00000-0  18546-3 0  9997
2 60975  88.9618 255.8168 0126303 307.0007  51.9698 14.58109183110107

Verfolge CZ-6A DEB in Echtzeit mit AllMySat

Download on the App Store